{"data":{"norad_id":57231,"epoch":"2026-09-20T17:42:57.475872Z","epoch_age_seconds":103641,"freshness":"FRESH","line1":"1 57231U 23094P   26263.73816523 -.00000741  00000+0 -17425-4 0  9996","line2":"2 57231  43.0046   9.3549 0000737 280.4740  79.6028 15.27574418176942","mean_motion":15.27574418,"eccentricity":7.37e-5,"inclination_deg":43.0046,"raan_deg":9.3549,"arg_perigee_deg":280.474,"mean_anomaly_deg":79.6028,"bstar":-1.7425e-5,"rev_number":17694,"period_min":94.267093179352,"perigee_km":482.56013995952,"apogee_km":483.57148125381,"semimajor_km":6861.2028106067,"source":"CELESTRAK","updated_at":"2026-09-21T09:00:33.586371Z"}}